Location: Pinon Hills
(34.4429°N, 117.6403°W)
Time: 12:00:46
(UTC-07:00)

Amateur Radio Satellites - All Passes

Search period start: 04 July 2015 11:30
Search period end: 05 July 2015 11:30
Location: Pinon Hills, 34.4429°N, 117.6403°W

Satellite Date Start Highest point End Downlink Frequencies (MHz)
Time Altitude Azimuth
RS-15 04 Jul 11:31:06 11:42:48 67° 57° (ENE) 11:54:57 29.354- 29.394
ESTCUBE 1 04 Jul 11:33:46 11:37:48 31° 97° (E) 11:41:50 437.505/2401.250
VERMONT LUNAR 04 Jul 11:35:29 11:38:28 39° 15° (NNE) 11:41:28 437.305
ANTELSAT 04 Jul 11:41:40 11:44:48 19° 266° (W) 11:47:47 437.575/2403.000
QB50P1 04 Jul 11:43:47 11:47:51 43° 261° (W) 11:51:54 145.935-145.965
PHONESAT 2.4 04 Jul 11:50:55 11:53:58 28° 1° (N) 11:57:01 2401.200-2431.200
VELOX 1 04 Jul 11:51:09 11:55:35 80° 102° (ESE) 11:59:58 145.980
TIGRISAT 04 Jul 11:54:57 11:57:19 14° 268° (W) 11:59:29 435.000
NANOSAT C BR1 04 Jul 11:58:26 12:02:11 30° 263° (W) 12:05:53 145.865
DX 1 04 Jul 12:01:16 12:05:20 39° 287° (WNW) 12:09:20 434.975-435.025
DUCHIFAT 1 04 Jul 12:05:39 12:09:12 25° 265° (W) 12:12:40 145.980
POLYITAN 1 04 Jul 12:10:58 12:14:16 21° 266° (W) 12:17:25 437.675
UKube-1 04 Jul 12:22:45 12:26:18 24° 289° (WNW) 12:29:45 .
BUGSAT 1 04 Jul 12:22:59 12:26:29 24° 265° (W) 12:29:54 437.445
SPROUT 04 Jul 12:23:06 12:26:36 25° 95° (E) 12:30:10 437.525
Oscar 19 04 Jul 12:23:24 12:26:21 16° 67° (ENE) 12:29:33 437.125/150
50 SAT 04 Jul 12:31:17 12:34:28 23° 288° (WNW) 12:37:35 437.505
HUMSAT D 04 Jul 12:37:41 12:39:18 12° 291° (WNW) 12:40:42 437.325/437.525
AISAT 04 Jul 12:38:49 12:42:34 27° 289° (WNW) 12:46:14 437.250
Cosmos 2499 04 Jul 12:51:31 12:55:58 17° 293° (WNW) 13:00:04 435.465 / 435.565
CUBEBUG 1 04 Jul 12:56:45 13:00:39 32° 288° (WNW) 13:04:27 437.445
TISAT 1 04 Jul 13:04:32 13:08:35 50° 99° (E) 13:12:39 437.305
ESTCUBE 1 04 Jul 13:11:04 13:14:29 20° 290° (WNW) 13:17:44 437.505/2401.250
VERMONT LUNAR 04 Jul 13:12:25 13:15:26 41° 209° (SSW) 13:18:26 437.305
PHONESAT 2.4 04 Jul 13:29:00 13:32:23 52° 18° (NNE) 13:35:48 2401.200-2431.200
BEESAT 04 Jul 13:30:13 13:32:40 14° 91° (E) 13:35:22 436.000
RS-15 04 Jul 13:44:35 13:54:43 32° 253° (WSW) 14:04:39 29.354- 29.394
SWISSCUBE 04 Jul 13:44:45 13:48:31 23° 95° (E) 13:52:22 437.505
ITUPSAT 1 04 Jul 13:50:01 13:53:50 24° 95° (E) 13:57:44 437.325
AO-7 04 Jul 13:54:15 13:56:47 12° 53° (NE) 13:59:56 29.400- 29.500
SPROUT 04 Jul 13:59:14 14:02:35 22° 289° (WNW) 14:05:50 437.525
Oscar 19 04 Jul 14:00:20 14:05:20 52° 260° (W) 14:10:21 437.125/150
Gurwin Techsat 1B 04 Jul 14:05:47 14:10:49 47° 73° (ENE) 14:15:55 435.225
ITAMSAT 1 04 Jul 14:11:47 14:16:48 52° 74° (ENE) 14:21:54 435.822/435.867
YUBILEINY 04 Jul 14:19:18 14:27:39 49° 77° (ENE) 14:36:06 435.215
ISS 04 Jul 14:23:47 14:26:12 19° 32° (NNE) 14:28:40 145.825
JAS-2 04 Jul 14:24:29 14:27:24 16° 65° (ENE) 14:30:38 435.910
Cosmos 2491 04 Jul 14:36:25 14:44:01 36° 88° (E) 14:51:51 435.465 / 435.565
HORYU 2 04 Jul 14:41:28 14:42:38 11° 67° (ENE) 14:44:05 437.375
TISAT 1 04 Jul 14:42:35 14:43:58 11° 292° (WNW) 14:45:07 437.305
KKS-1 04 Jul 14:44:20 14:46:23 13° 91° (E) 14:48:42 437.445
PCSat 04 Jul 14:58:39 15:03:20 31° 109° (ESE) 15:08:07 145.827
BEESAT 04 Jul 15:06:12 15:10:50 48° 286° (WNW) 15:15:25 436.000
PHONESAT 2.4 04 Jul 15:07:12 15:10:20 31° 212° (SSW) 15:13:27 2401.200-2431.200
SWISSCUBE 04 Jul 15:22:10 15:26:23 30° 289° (WNW) 15:30:30 437.505
ITUPSAT 1 04 Jul 15:27:32 15:31:44 30° 289° (WNW) 15:35:50 437.325
STARS 04 Jul 15:34:44 15:38:36 31° 97° (E) 15:42:30 437.465
SO-50 04 Jul 15:38:14 15:40:57 16° 109° (ESE) 15:43:56 436.795
AO-7 04 Jul 15:40:02 15:48:14 66° 70° (ENE) 15:56:31 29.400- 29.500
JUGNU 04 Jul 15:40:28 15:42:53 13° 167° (SSE) 15:45:24 437.505
AIST 1 04 Jul 15:41:02 15:45:23 68° 95° (E) 15:49:46
Gurwin Techsat 1B 04 Jul 15:47:27 15:51:06 18° 268° (W) 15:54:31 435.225
ITAMSAT 1 04 Jul 15:53:28 15:56:41 16° 269° (W) 15:59:38 435.822/435.867
ISS 04 Jul 15:59:42 16:02:42 35° 228° (SW) 16:05:41 145.825
BEESAT 3 04 Jul 16:03:48 16:07:23 30° 55° (NE) 16:10:58 437.485
JAS-2 04 Jul 16:07:10 16:12:10 49° 261° (W) 16:17:17 435.910
Cosmos 2504 04 Jul 16:13:40 16:19:45 27° 73° (ENE) 16:26:27 435.465 / 435.565
HORYU 2 04 Jul 16:14:30 16:18:50 57° 259° (W) 16:23:12 437.375
BEESAT 2 04 Jul 16:16:06 16:19:47 32° 55° (NE) 16:23:26 435.950
YUBILEINY 04 Jul 16:16:43 16:24:12 32° 273° (W) 16:31:28 435.215
KKS-1 04 Jul 16:19:05 16:23:18 43° 286° (WNW) 16:27:28 437.445
Cosmos 2491 04 Jul 16:32:26 16:40:46 43° 284° (WNW) 16:49:00 435.465 / 435.565
MOZHAYETS 4 04 Jul 16:37:26 16:41:15 25° 95° (E) 16:45:08
PCSat 04 Jul 16:41:58 16:46:43 30° 305° (NW) 16:51:27 145.827
STARS 04 Jul 17:11:41 17:14:52 19° 290° (WNW) 17:17:54 437.465
SO-50 04 Jul 17:16:34 17:21:07 48° 304° (WNW) 17:25:48 436.795
Cubesat XI-IV 04 Jul 17:23:17 17:27:11 22° 68° (ENE) 17:31:16 437.490
O/OREOS (USA 219) 04 Jul 17:23:54 17:28:17 48° 67° (ENE) 17:32:42 437.305
JUGNU 04 Jul 17:27:10 17:31:14 19° 176° (S) 17:35:18 437.505
AO-7 04 Jul 17:35:12 17:41:41 23° 267° (W) 17:47:48 29.400- 29.500
AIST 2 04 Jul 17:35:21 17:39:30 58° 59° (ENE) 17:43:33 435.215
BEESAT 3 04 Jul 17:42:20 17:45:08 18° 249° (WSW) 17:47:48 437.485
BEESAT 2 04 Jul 17:54:53 17:57:37 17° 249° (WSW) 18:00:09 435.950
Cosmos 2504 04 Jul 18:04:56 18:12:16 52° 268° (W) 18:20:03 435.465 / 435.565
MOZHAYETS 4 04 Jul 18:14:32 18:18:25 26° 289° (WNW) 18:22:12
SRMSAT 04 Jul 18:20:04 18:23:36 16° 171° (S) 18:27:11 437.500
CUTE-I 04 Jul 18:27:17 18:32:39 89° 96° (E) 18:38:04 437.470
CUBESAT XI-V 04 Jul 18:41:11 18:45:39 44° 98° (E) 18:50:06 437.345
PRISM 04 Jul 18:50:46 18:52:47 14° 92° (E) 18:54:59 437.425
DANDE 04 Jul 18:53:29 18:55:00 14° 73° (ENE) 18:56:34 436.750
GONETS M04 04 Jul 18:57:20 19:02:25 17° 65° (ENE) 19:08:01
Cubesat XI-IV 04 Jul 19:01:59 19:07:02 41° 262° (W) 19:12:06 437.490
O/OREOS (USA 219) 04 Jul 19:05:17 19:07:20 12° 260° (W) 19:09:07 437.305
JUGNU 04 Jul 19:15:38 19:19:36 18° 186° (S) 19:23:30 437.505
GOMX 1 04 Jul 19:20:16 19:23:43 19° 70° (ENE) 19:27:12 467.674
CUSAT 1 04 Jul 19:29:13 19:31:45 51° 263° (W) 19:34:22 437.405
HO-68 04 Jul 19:37:05 19:42:54 29° 65° (ENE) 19:48:53 435.675
STRAND 1 04 Jul 19:41:49 19:46:55 62° 101° (ESE) 19:51:59 437.568
BRITE-PL 04 Jul 19:44:09 19:49:34 58° 76° (ENE) 19:54:42 437.365/2234.400
DOVE 4 04 Jul 20:02:10 20:06:24 30° 73° (ENE) 20:10:29 437.250
SRMSAT 04 Jul 20:07:59 20:12:07 19° 181° (S) 20:16:13 437.500
COMPASS 1 04 Jul 20:12:36 20:15:26 19° 71° (ENE) 20:18:25 437.405
CUBESAT XI-V 04 Jul 20:19:53 20:22:45 16° 292° (WNW) 20:25:25 437.345
CUTE 1.7 + AOD 2 04 Jul 20:22:31 20:26:25 39° 74° (ENE) 20:30:23 437.475
PRISM 04 Jul 20:24:30 20:28:25 39° 287° (WNW) 20:32:17 437.425
CANX-2 04 Jul 20:25:47 20:29:49 49° 75° (ENE) 20:33:55 2200.000
CINEMA 3 04 Jul 20:45:32 20:49:44 38° 74° (ENE) 20:53:48 145.822/145.860
UWE-3 04 Jul 20:47:47 20:49:43 13° 69° (ENE) 20:51:51 435.000/436.395/437.385
Cosmos 2499 04 Jul 20:50:16 20:55:31 20° 69° (ENE) 21:01:27 435.465 / 435.565
GONETS M04 04 Jul 20:51:46 21:00:29 82° 265° (W) 21:09:10
AUBIESAT-1 04 Jul 20:55:02 20:58:27 23° 100° (E) 21:02:07 437.475
GOMX 1 04 Jul 20:56:39 21:01:37 43° 262° (W) 21:06:17 467.674
JUGNU 04 Jul 21:06:16 21:07:56 11° 195° (SSW) 21:09:27 437.505
SEEDS 04 Jul 21:10:02 21:14:10 64° 260° (W) 21:18:19 437.485
AAUSAT CUBESAT 2 04 Jul 21:20:14 21:24:21 74° 259° (W) 21:28:30 437.432
STRAND 1 04 Jul 21:22:59 21:25:39 14° 294° (WNW) 21:28:02 437.568
HO-68 04 Jul 21:23:30 21:30:22 48° 260° (W) 21:37:12 435.675
BRITE-PL 04 Jul 21:25:06 21:28:22 15° 269° (W) 21:31:16 437.365/2234.400
M-CUBED/EXP-1 PRIME 04 Jul 21:28:54 21:33:12 67° 106° (ESE) 21:37:48 437.505
CUBEBUG 2 04 Jul 21:31:25 21:35:40 58° 76° (ENE) 21:39:49 437.445
ZACube-1 04 Jul 21:32:29 21:36:18 34° 74° (ENE) 21:40:06 437.345
DELFI C3 04 Jul 21:33:36 21:37:22 42° 75° (ENE) 21:41:11 145.870
UKube-1 04 Jul 21:39:33 21:41:37 14° 68° (ENE) 21:43:54 .
Oscar 11 04 Jul 21:39:53 21:44:10 79° 76° (ENE) 21:48:28 145.826/435.025
DOVE 4 04 Jul 21:40:11 21:44:09 23° 265° (W) 21:47:50 437.250
COMPASS 1 04 Jul 21:47:20 21:50:56 28° 264° (W) 21:54:31 437.405
HUMSAT D 04 Jul 21:48:58 21:52:01 21° 71° (ENE) 21:55:10 437.325/437.525
SRMSAT 04 Jul 21:57:21 22:00:36 15° 191° (S) 22:03:47 437.500
AISAT 04 Jul 21:58:16 22:00:24 14° 68° (ENE) 22:02:46 437.250
CUTE 1.7 + AOD 2 04 Jul 22:00:26 22:02:34 13° 269° (W) 22:04:29 437.475
CANX-2 04 Jul 22:05:08 22:06:06 10° 270° (W) 22:06:47 2200.000
FUNcube-1 04 Jul 22:08:00 22:12:14 87° 254° (WSW) 22:16:25 145.935
TIGRISAT 04 Jul 22:13:54 22:14:44 11° 90° (E) 22:15:52 435.000
CUBEBUG 1 04 Jul 22:16:16 22:17:03 11° 67° (ENE) 22:18:08 437.445
UWE-3 04 Jul 22:21:53 22:25:57 42° 261° (W) 22:29:57 435.000/436.395/437.385
CINEMA 3 04 Jul 22:24:14 22:27:05 16° 267° (W) 22:29:40 145.822/145.860
AUBIESAT-1 04 Jul 22:29:22 22:33:08 29° 292° (WNW) 22:37:02 437.475
ESTCUBE 1 04 Jul 22:30:38 22:33:50 20° 70° (ENE) 22:37:10 437.505/2401.250
Cosmos 2499 04 Jul 22:41:28 22:49:24 73° 266° (W) 22:57:55 435.465 / 435.565
VELOX 1 04 Jul 22:45:06 22:49:20 45° 74° (ENE) 22:53:37 145.980
UNISAT 6 04 Jul 22:51:07 22:55:04 32° 97° (E) 22:59:08 437.425
DX 1 04 Jul 22:52:44 22:57:07 73° 258° (WSW) 23:01:30 434.975-435.025
GONETS M04 04 Jul 22:52:46 22:56:13 12° 280° (W) 22:58:53
QB50P2 04 Jul 22:54:33 22:56:19 13° 91° (E) 22:58:20 145.880/145.840
POPSAT HIP 1 04 Jul 22:55:16 22:56:55 12° 91° (E) 22:58:49 437.405
M-CUBED/EXP-1 PRIME 04 Jul 23:06:26 23:07:39 11° 296° (WNW) 23:08:39 437.505
ZACube-1 04 Jul 23:10:11 23:12:48 15° 268° (W) 23:15:12 437.345
50 SAT 04 Jul 23:11:00 23:14:49 72° 259° (WSW) 23:18:39 437.505
DELFI C3 04 Jul 23:11:22 23:12:44 11° 270° (W) 23:13:51 145.870
UKube-1 04 Jul 23:13:14 23:17:24 45° 260° (W) 23:21:34 .
SPROUT 04 Jul 23:15:18 23:17:18 13° 68° (ENE) 23:19:31 437.525
HUMSAT D 04 Jul 23:24:17 23:27:40 24° 265° (W) 23:30:57 437.325/437.525
AISAT 04 Jul 23:32:18 23:36:37 47° 261° (W) 23:40:56 437.250
QB50P1 04 Jul 23:32:24 23:36:16 36° 98° (E) 23:40:10 145.935-145.965
ANTELSAT 04 Jul 23:35:18 23:39:43 74° 283° (WNW) 23:44:12 437.575/2403.000
NANOSAT C BR1 04 Jul 23:46:14 23:50:21 54° 100° (E) 23:54:27 145.865
TIGRISAT 04 Jul 23:47:33 23:51:50 55° 285° (WNW) 23:56:13 435.000
CUBEBUG 1 04 Jul 23:48:33 23:52:57 61° 259° (W) 23:57:21 437.445
PCSat 04 Jul 23:51:12 23:53:47 14° 47° (NE) 23:56:38 145.827
DUCHIFAT 1 04 Jul 23:52:58 23:57:08 65° 101° (E) 00:01:18 145.980
TISAT 1 04 Jul 23:53:36 23:56:59 24° 71° (ENE) 00:00:27 437.305
POLYITAN 1 04 Jul 23:58:38 00:02:51 82° 102° (ESE) 00:07:04 437.675
ESTCUBE 1 05 Jul 00:06:24 00:10:29 32° 263° (W) 00:14:34 437.505/2401.250
BUGSAT 1 05 Jul 00:07:56 00:11:57 62° 101° (E) 00:15:54 437.445
VELOX 1 05 Jul 00:23:50 00:26:09 13° 269° (W) 00:28:15 145.980
QB50P2 05 Jul 00:28:29 00:32:27 41° 286° (WNW) 00:36:25 145.880/145.840
UNISAT 6 05 Jul 00:28:30 00:31:40 19° 290° (WNW) 00:34:44 437.425
POPSAT HIP 1 05 Jul 00:29:04 00:33:03 42° 286° (WNW) 00:37:01 437.405
BEESAT 05 Jul 00:34:38 00:36:11 12° 66° (ENE) 00:38:01 436.000
SWISSCUBE 05 Jul 00:48:30 00:51:43 19° 68° (ENE) 00:55:07 437.505
SPROUT 05 Jul 00:48:54 00:53:03 44° 261° (W) 00:57:11 437.525
Cosmos 2491 05 Jul 00:53:26 00:56:46 13° 61° (ENE) 01:00:50 435.465 / 435.565
ITUPSAT 1 05 Jul 00:54:00 00:57:17 19° 68° (ENE) 01:00:44 437.325
QB50P1 05 Jul 01:09:21 01:11:52 15° 291° (WNW) 01:14:13 145.935-145.965
NANOSAT C BR1 05 Jul 01:24:49 01:25:47 10° 293° (WNW) 01:26:27 145.865
TISAT 1 05 Jul 01:29:16 01:32:42 23° 265° (W) 01:36:00 437.305
PCSat 05 Jul 01:32:30 01:37:56 81° 247° (WSW) 01:43:21 145.827
RS-15 05 Jul 01:50:05 02:00:36 60° 113° (ESE) 02:11:27 29.354- 29.394
SO-50 05 Jul 01:51:17 01:56:11 59° 58° (ENE) 02:00:58 436.795
AIST 1 05 Jul 01:54:10 01:55:40 12° 70° (ENE) 01:57:24
BEESAT 05 Jul 02:08:49 02:13:32 64° 259° (W) 02:18:18 436.000
Oscar 19 05 Jul 02:15:17 02:20:25 74° 101° (ESE) 02:25:34 437.125/150
SWISSCUBE 05 Jul 02:24:51 02:29:19 38° 262° (W) 02:33:47 437.505
Gurwin Techsat 1B 05 Jul 02:26:07 02:30:23 25° 94° (E) 02:34:45 435.225
ITAMSAT 1 05 Jul 02:28:52 02:33:03 25° 95° (E) 02:37:18 435.822/435.867
STARS 05 Jul 02:28:58 02:31:57 19° 69° (ENE) 02:35:04 437.465
ITUPSAT 1 05 Jul 02:30:29 02:34:55 38° 262° (W) 02:39:23 437.325
Cosmos 2491 05 Jul 02:46:34 02:55:20 81° 83° (E) 03:04:03 435.465 / 435.565
KKS-1 05 Jul 03:13:12 03:17:40 77° 259° (W) 03:22:08 437.445
YUBILEINY 05 Jul 03:15:19 03:23:49 63° 92° (E) 03:32:22 435.215
JAS-2 05 Jul 03:18:13 03:23:53 28° 95° (E) 03:30:12 435.910
AIST 1 05 Jul 03:29:30 03:33:40 45° 267° (W) 03:37:46
SO-50 05 Jul 03:33:46 03:36:16 14° 252° (WSW) 03:38:29 436.795
MOZHAYETS 4 05 Jul 03:36:56 03:39:41 17° 69° (ENE) 03:42:39
AO-7 05 Jul 03:46:43 03:53:17 26° 95° (E) 04:00:06 29.400- 29.500
Oscar 19 05 Jul 03:57:29 03:59:14 11° 295° (WNW) 04:00:41 437.125/150
RS-15 05 Jul 04:03:37 04:13:35 37° 315° (NW) 04:23:39 29.354- 29.394
STARS 05 Jul 04:04:13 04:08:12 32° 263° (W) 04:12:08 437.465
Gurwin Techsat 1B 05 Jul 04:05:38 04:10:25 34° 289° (WNW) 04:15:07 435.225
ITAMSAT 1 05 Jul 04:07:55 04:12:35 33° 289° (WNW) 04:17:10 435.822/435.867
HORYU 2 05 Jul 04:09:20 04:13:24 34° 98° (E) 04:17:30 437.375
Cosmos 2504 05 Jul 04:42:32 04:46:48 18° 85° (E) 04:51:25 435.465 / 435.565
Cosmos 2491 05 Jul 04:45:59 04:51:19 17° 278° (W) 04:56:03 435.465 / 435.565
JAS-2 05 Jul 05:02:34 05:09:04 49° 287° (WNW) 05:16:11 435.910
MOZHAYETS 4 05 Jul 05:12:19 05:16:37 40° 262° (W) 05:20:56
YUBILEINY 05 Jul 05:14:29 05:21:21 24° 291° (WNW) 05:27:52 435.215
AO-7 05 Jul 05:38:22 05:46:34 60° 291° (WNW) 05:54:39 29.400- 29.500
CUBESAT XI-V 05 Jul 05:41:14 05:45:14 29° 72° (ENE) 05:49:20 437.345
VERMONT LUNAR 05 Jul 05:45:45 05:47:37 15° 144° (SE) 05:49:33 437.305
Cubesat XI-IV 05 Jul 05:46:41 05:47:09 10° 88° (E) 05:48:04 437.490
HORYU 2 05 Jul 05:46:42 05:49:49 18° 291° (WNW) 05:52:47 437.375
BEESAT 3 05 Jul 05:54:46 05:56:36 13° 110° (ESE) 05:58:39 437.485
BEESAT 2 05 Jul 06:07:42 06:09:53 15° 110° (ESE) 06:12:16 435.950
RS-15 05 Jul 06:26:09 06:30:52 13° 347° (NNW) 06:35:20 29.354- 29.394
Cosmos 2504 05 Jul 06:31:38 06:38:30 58° 280° (W) 06:45:17 435.465 / 435.565
CUTE-I 05 Jul 06:48:14 06:53:25 48° 99° (E) 06:58:34 437.470
CUSAT 1 05 Jul 06:49:12 06:53:39 20° 95° (E) 06:57:40 437.405
STRAND 1 05 Jul 06:54:01 06:59:05 62° 74° (ENE) 07:04:11 437.568
ISS 05 Jul 06:59:48 07:02:45 33° 132° (SE) 07:05:44 145.825
PRISM 05 Jul 07:10:23 07:14:33 90° 254° (WSW) 07:18:46 437.425
CUBESAT XI-V 05 Jul 07:18:53 07:22:40 23° 266° (W) 07:26:22 437.345
VERMONT LUNAR 05 Jul 07:21:10 07:24:16 79° 336° (NNW) 07:27:23 437.305
Cubesat XI-IV 05 Jul 07:22:34 07:27:56 77° 285° (WNW) 07:33:17 437.490
AIST 2 05 Jul 07:30:04 07:33:44 30° 113° (ESE) 07:37:30 435.215
BEESAT 3 05 Jul 07:30:20 07:34:13 42° 303° (WNW) 07:38:08 437.485
O/OREOS (USA 219) 05 Jul 07:32:24 07:36:50 70° 291° (WNW) 07:41:17 437.305
AO-7 05 Jul 07:36:04 07:37:52 11° 309° (NW) 07:39:03 29.400- 29.500
AUBIESAT-1 05 Jul 07:41:54 07:43:02 12° 64° (ENE) 07:44:20 437.475
BEESAT 2 05 Jul 07:43:47 07:47:39 39° 303° (WNW) 07:51:32 435.950
PHONESAT 2.4 05 Jul 07:50:43 07:53:45 30° 147° (SSE) 07:56:49 2401.200-2431.200
GONETS M04 05 Jul 07:54:10 08:00:20 23° 84° (E) 08:06:54
BRITE-PL 05 Jul 07:54:13 07:57:10 19° 93° (E) 08:00:12 437.365/2234.400
DANDE 05 Jul 07:56:04 08:03:31 63° 97° (E) 08:09:19 436.750
M-CUBED/EXP-1 PRIME 05 Jul 08:14:57 08:18:01 39° 70° (ENE) 08:21:14 437.505
CANX-2 05 Jul 08:16:46 08:18:06 11° 90° (E) 08:19:41 2200.000
CUTE-I 05 Jul 08:29:27 08:33:10 19° 293° (WNW) 08:36:39 437.470
CUSAT 1 05 Jul 08:29:44 08:36:15 48° 280° (W) 08:41:15 437.405
STRAND 1 05 Jul 08:36:26 08:38:47 13° 270° (W) 08:40:47 437.568
ISS 05 Jul 08:36:42 08:39:13 20° 327° (NNW) 08:41:42 145.825
RS-15 05 Jul 08:43:47 08:50:15 16° 24° (NNE) 08:57:21 29.354- 29.394
CINEMA 3 05 Jul 08:46:25 08:47:01 10° 90° (E) 08:47:56 145.822/145.860
HO-68 05 Jul 08:54:55 09:01:33 41° 98° (E) 09:08:15 435.675
SEEDS 05 Jul 08:58:13 09:01:48 27° 95° (E) 09:05:27 437.485
VERMONT LUNAR 05 Jul 08:58:42 09:01:27 27° 353° (N) 09:04:12 437.305
GOMX 1 05 Jul 09:02:13 09:06:23 75° 101° (E) 09:10:31 467.674
AAUSAT CUBESAT 2 05 Jul 09:07:16 09:10:32 22° 94° (E) 09:13:54 437.432
AIST 2 05 Jul 09:08:56 09:12:20 22° 308° (NW) 09:15:40 435.215
AUBIESAT-1 05 Jul 09:14:37 09:17:33 29° 258° (WSW) 09:20:32 437.475
Cosmos 2499 05 Jul 09:26:21 09:29:04 13° 83° (E) 09:32:19 435.465 / 435.565
CUBEBUG 2 05 Jul 09:27:02 09:29:30 15° 93° (E) 09:32:11 437.445
PHONESAT 2.4 05 Jul 09:28:19 09:31:40 52° 342° (NNW) 09:35:03 2401.200-2431.200
Oscar 11 05 Jul 09:31:41 09:34:42 19° 93° (E) 09:37:51 145.826/435.025
BRITE-PL 05 Jul 09:32:13 09:35:48 26° 288° (WNW) 09:39:13 437.365/2234.400
COMPASS 1 05 Jul 09:33:30 09:37:40 57° 100° (E) 09:41:50 437.405
DOVE 4 05 Jul 09:41:50 09:45:55 60° 284° (WNW) 09:50:02 437.250
DANDE 05 Jul 09:41:55 09:46:45 18° 286° (WNW) 09:50:39 436.750
CUTE 1.7 + AOD 2 05 Jul 09:46:36 09:50:50 60° 284° (WNW) 09:55:03 437.475
UNISAT 6 05 Jul 09:47:44 09:50:39 19° 70° (ENE) 09:53:42 437.425
GONETS M04 05 Jul 09:47:51 09:56:34 64° 280° (W) 10:05:15
CANX-2 05 Jul 09:50:12 09:54:20 48° 285° (WNW) 09:58:28 2200.000
FUNcube-1 05 Jul 10:00:18 10:03:36 22° 95° (E) 10:07:02 145.935
UWE-3 05 Jul 10:14:48 10:18:52 45° 99° (E) 10:23:04 435.000/436.395/437.385
CINEMA 3 05 Jul 10:20:31 10:24:34 49° 285° (WNW) 10:28:42 145.822/145.860
QB50P1 05 Jul 10:22:30 10:25:22 18° 70° (ENE) 10:28:22 145.935-145.965
ANTELSAT 05 Jul 10:30:50 10:35:04 61° 76° (ENE) 10:39:17 437.575/2403.000
SEEDS 05 Jul 10:34:12 10:37:27 21° 289° (WNW) 10:40:36 437.485
NANOSAT C BR1 05 Jul 10:35:39 10:39:08 26° 72° (ENE) 10:42:40 145.865
VERMONT LUNAR 05 Jul 10:36:02 10:38:51 30° 10° (N) 10:41:41 437.305
VELOX 1 05 Jul 10:41:41 10:42:44 11° 90° (E) 10:44:05 145.980
DUCHIFAT 1 05 Jul 10:42:02 10:45:42 30° 72° (ENE) 10:49:24 145.980
AAUSAT CUBESAT 2 05 Jul 10:42:38 10:46:05 24° 288° (WNW) 10:49:27 437.432
TIGRISAT 05 Jul 10:42:41 10:46:58 83° 77° (ENE) 10:51:14 435.000
HO-68 05 Jul 10:42:53 10:49:10 33° 293° (WNW) 10:55:19 435.675
DX 1 05 Jul 10:45:14 10:48:45 24° 95° (E) 10:52:19 434.975-435.025
POLYITAN 1 05 Jul 10:48:09 10:52:03 37° 74° (ENE) 10:56:00 437.675
DELFI C3 05 Jul 10:50:47 10:54:50 66° 284° (WNW) 10:58:51 145.870
50 SAT 05 Jul 10:51:12 10:53:38 16° 93° (E) 10:56:14 437.505
BUGSAT 1 05 Jul 10:54:40 10:58:12 27° 72° (ENE) 11:01:48 437.445
RS-15 05 Jul 10:55:11 11:06:31 52° 52° (NE) 11:18:21 29.354- 29.394
ZACube-1 05 Jul 11:00:03 11:04:16 64° 284° (WNW) 11:08:32 437.345
CUBEBUG 2 05 Jul 11:02:27 11:06:20 35° 286° (WNW) 11:10:15 437.445
UKube-1 05 Jul 11:04:14 11:08:15 37° 98° (E) 11:12:16 .
PHONESAT 2.4 05 Jul 11:07:03 11:10:05 28° 358° (N) 11:13:09 2401.200-2431.200
Oscar 11 05 Jul 11:07:06 11:10:57 30° 287° (WNW) 11:14:44 145.826/435.025
HUMSAT D 05 Jul 11:10:40 11:14:49 67° 101° (E) 11:19:01 437.325/437.525
COMPASS 1 05 Jul 11:12:12 11:12:54 10° 292° (WNW) 11:13:20 437.405
Cosmos 2499 05 Jul 11:14:21 11:21:26 78° 278° (W) 11:28:34 435.465 / 435.565
QB50P2 05 Jul 11:17:18 11:21:33 89° 81° (E) 11:25:49 145.880/145.840
POPSAT HIP 1 05 Jul 11:17:45 11:22:01 87° 78° (ENE) 11:26:16 437.405
